Saint Bonnet de Bellac- Haute Vienne - France
Donnes mto: jeudi, 06/09/2012
Date Horaire Temp. E. Hum. E. P.atmo. Pluie Vent Direction Direction Ensoleilleme Solaire P. de rose Temp au vent Rafales
06/09/2012 00:00 18,3 C 71 % 1022,0 hPa 0,0 mm 3,2 km/h (1 Bft) N-NE 22 0 min 0 W/m 12,9 C 18,3 C 3,2 km/h (1 Bft)
06/09/2012 00:10 18,1 C 71 % 1022,0 hPa 0,0 mm 3,6 km/h (1 Bft) E-NE 67 0 min 0 W/m 12,8 C 18,1 C 7,2 km/h (2 Bft)
06/09/2012 00:20 18,0 C 72 % 1021,9 hPa 0,0 mm 4,7 km/h (1 Bft) N-NO 337 0 min 0 W/m 12,9 C 18,0 C 6,5 km/h (2 Bft)
06/09/2012 00:30 17,9 C 73 % 1022,0 hPa 0,0 mm 5,0 km/h (1 Bft) NE 45 0 min 0 W/m 13,0 C 17,9 C 8,6 km/h (2 Bft)
06/09/2012 00:40 17,9 C 73 % 1021,9 hPa 0,0 mm 4,0 km/h (1 Bft) N-NE 22 0 min 0 W/m 13,0 C 17,9 C 4,0 km/h (1 Bft)
06/09/2012 00:50 17,8 C 73 % 1022,0 hPa 0,0 mm 3,6 km/h (1 Bft) NE 45 0 min 0 W/m 12,9 C 17,8 C 4,3 km/h (1 Bft)
06/09/2012 01:00 17,8 C 74 % 1022,1 hPa 0,0 mm 1,1 km/h (1 Bft) N 360 0 min 0 W/m 13,1 C 17,8 C 4,3 km/h (1 Bft)
06/09/2012 01:10 17,8 C 74 % 1022,1 hPa 0,0 mm 4,3 km/h (1 Bft) E-NE 67 0 min 0 W/m 13,1 C 17,8 C 7,2 km/h (2 Bft)
06/09/2012 01:20 17,6 C 74 % 1022,2 hPa 0,0 mm 3,6 km/h (1 Bft) NE 45 0 min 0 W/m 12,9 C 17,6 C 7,9 km/h (2 Bft)
06/09/2012 01:30 17,4 C 74 % 1022,2 hPa 0,0 mm 1,8 km/h (1 Bft) N-NE 22 0 min 0 W/m 12,7 C 17,4 C 7,2 km/h (2 Bft)
06/09/2012 01:40 17,3 C 74 % 1022,2 hPa 0,0 mm 2,5 km/h (1 Bft) NE 45 0 min 0 W/m 12,6 C 17,3 C 2,5 km/h (1 Bft)
06/09/2012 01:50 17,1 C 75 % 1022,2 hPa 0,0 mm 2,2 km/h (1 Bft) N-NE 22 0 min 0 W/m 12,6 C 17,1 C 4,0 km/h (1 Bft)
06/09/2012 02:00 16,8 C 75 % 1022,3 hPa 0,0 mm 0,0 km/h (0 Bft) N-NE 22 0 min 0 W/m 12,3 C 16,8 C 0,0 km/h (0 Bft)
06/09/2012 02:10 16,6 C 76 % 1022,4 hPa 0,0 mm 1,4 km/h (1 Bft) NE 45 0 min 0 W/m 12,3 C 16,6 C 1,4 km/h (1 Bft)
06/09/2012 02:20 16,4 C 77 % 1022,4 hPa 0,0 mm 2,5 km/h (1 Bft) N-NE 22 0 min 0 W/m 12,4 C 16,4 C 6,1 km/h (2 Bft)
06/09/2012 02:30 16,3 C 77 % 1022,3 hPa 0,0 mm 1,8 km/h (1 Bft) N-NE 22 0 min 0 W/m 12,3 C 16,3 C 4,0 km/h (1 Bft)
06/09/2012 02:40 16,1 C 78 % 1022,3 hPa 0,0 mm 2,5 km/h (1 Bft) NE 45 0 min 0 W/m 12,3 C 16,1 C 4,3 km/h (1 Bft)
06/09/2012 02:50 15,9 C 79 % 1022,3 hPa 0,0 mm 2,9 km/h (1 Bft) N 360 0 min 0 W/m 12,3 C 15,9 C 4,3 km/h (1 Bft)
06/09/2012 03:02 15,8 C 79 % 1022,3 hPa 0,0 mm 2,5 km/h (1 Bft) N-NE 22 0 min 0 W/m 12,2 C 15,8 C 4,0 km/h (1 Bft)
06/09/2012 03:10 15,7 C 79 % 1022,2 hPa 0,0 mm 0,7 km/h (0 Bft) N-NE 22 0 min 0 W/m 12,1 C 15,7 C 3,6 km/h (1 Bft)
06/09/2012 03:20 15,6 C 80 % 1022,3 hPa 0,0 mm 0,7 km/h (0 Bft) N-NE 22 0 min 0 W/m 12,2 C 15,6 C 3,2 km/h (1 Bft)
06/09/2012 03:30 15,4 C 80 % 1022,4 hPa 0,0 mm 0,0 km/h (0 Bft) N-NE 22 0 min 0 W/m 12,0 C 15,4 C 0,0 km/h (0 Bft)
06/09/2012 03:40 15,3 C 80 % 1022,4 hPa 0,0 mm 1,1 km/h (1 Bft) NE 45 0 min 0 W/m 11,9 C 15,3 C 5,8 km/h (2 Bft)
06/09/2012 03:50 15,1 C 81 % 1022,3 hPa 0,0 mm 0,0 km/h (0 Bft) NE 45 0 min 0 W/m 11,9 C 15,1 C 0,0 km/h (0 Bft)
06/09/2012 04:00 14,9 C 81 % 1022,4 hPa 0,0 mm 1,1 km/h (1 Bft) N-NO 337 0 min 0 W/m 11,7 C 14,9 C 4,0 km/h (1 Bft)
06/09/2012 04:10 14,9 C 82 % 1022,5 hPa 0,0 mm 0,4 km/h (0 Bft) N 360 0 min 0 W/m 11,9 C 14,9 C 0,4 km/h (0 Bft)
06/09/2012 04:20 14,8 C 82 % 1022,5 hPa 0,0 mm 0,0 km/h (0 Bft) N-NE 22 0 min 0 W/m 11,8 C 14,8 C 0,0 km/h (0 Bft)
06/09/2012 04:30 14,6 C 82 % 1022,5 hPa 0,0 mm 2,5 km/h (1 Bft) N 360 0 min 0 W/m 11,6 C 14,6 C 4,3 km/h (1 Bft)
06/09/2012 04:40 14,4 C 83 % 1022,4 hPa 0,0 mm 1,8 km/h (1 Bft) NE 45 0 min 0 W/m 11,5 C 14,4 C 4,3 km/h (1 Bft)
06/09/2012 04:50 14,3 C 84 % 1022,4 hPa 0,0 mm 1,8 km/h (1 Bft) NE 45 0 min 0 W/m 11,6 C 14,3 C 1,8 km/h (1 Bft)
06/09/2012 05:00 14,3 C 84 % 1022,4 hPa 0,0 mm 1,1 km/h (1 Bft) N-NE 22 0 min 0 W/m 11,6 C 14,3 C 4,0 km/h (1 Bft)
06/09/2012 05:10 14,3 C 84 % 1022,3 hPa 0,0 mm 0,0 km/h (0 Bft) N 360 0 min 0 W/m 11,6 C 14,3 C 0,0 km/h (0 Bft)
06/09/2012 05:20 14,2 C 84 % 1022,4 hPa 0,0 mm 1,4 km/h (1 Bft) N-NE 22 0 min 0 W/m 11,5 C 14,2 C 3,2 km/h (1 Bft)
06/09/2012 05:30 14,1 C 84 % 1022,4 hPa 0,0 mm 0,0 km/h (0 Bft) NE 45 0 min 0 W/m 11,4 C 14,1 C 0,0 km/h (0 Bft)
06/09/2012 05:40 13,9 C 85 % 1022,5 hPa 0,0 mm 1,4 km/h (1 Bft) N-NE 22 0 min 0 W/m 11,4 C 13,9 C 7,9 km/h (2 Bft)
06/09/2012 05:50 13,8 C 85 % 1022,5 hPa 0,0 mm 0,7 km/h (0 Bft) N-NE 22 0 min 0 W/m 11,3 C 13,8 C 3,6 km/h (1 Bft)
06/09/2012 06:00 13,6 C 85 % 1022,5 hPa 0,0 mm 4,0 km/h (1 Bft) N-NE 22 0 min 0 W/m 11,1 C 13,6 C 7,6 km/h (2 Bft)
06/09/2012 06:10 13,4 C 85 % 1022,7 hPa 0,0 mm 0,0 km/h (0 Bft) E-NE 67 0 min 0 W/m 10,9 C 13,4 C 0,0 km/h (0 Bft)
06/09/2012 06:20 13,3 C 85 % 1022,7 hPa 0,0 mm 0,4 km/h (0 Bft) N-NE 22 0 min 0 W/m 10,8 C 13,3 C 3,2 km/h (1 Bft)
06/09/2012 06:30 13,3 C 86 % 1022,7 hPa 0,0 mm 5,4 km/h (2 Bft) E-NE 67 0 min 0 W/m 11,0 C 13,3 C 9,0 km/h (2 Bft)
06/09/2012 06:40 13,3 C 87 % 1022,7 hPa 0,0 mm 4,0 km/h (1 Bft) N-NE 22 0 min 0 W/m 11,2 C 13,3 C 6,8 km/h (2 Bft)
06/09/2012 06:50 13,2 C 87 % 1022,8 hPa 0,0 mm 2,9 km/h (1 Bft) N 360 0 min 0 W/m 11,1 C 13,2 C 8,3 km/h (2 Bft)
06/09/2012 07:00 13,1 C 87 % 1022,9 hPa 0,0 mm 2,2 km/h (1 Bft) NE 45 0 min 0 W/m 11,0 C 13,1 C 3,6 km/h (1 Bft)
06/09/2012 07:10 13,1 C 87 % 1023,0 hPa 0,0 mm 0,0 km/h (0 Bft) NE 45 0 min 0 W/m 11,0 C 13,1 C 0,0 km/h (0 Bft)
06/09/2012 07:20 12,9 C 87 % 1023,0 hPa 0,0 mm 8,3 km/h (2 Bft) N-NE 22 0 min 0 W/m 10,8 C 12,9 C 8,3 km/h (2 Bft)
06/09/2012 07:30 12,8 C 87 % 1023,1 hPa 0,0 mm 1,8 km/h (1 Bft) N-NE 22 0 min 0 W/m 10,7 C 12,8 C 6,1 km/h (2 Bft)
06/09/2012 07:40 12,6 C 87 % 1023,1 hPa 0,0 mm 1,8 km/h (1 Bft) N 360 0 min 0 W/m 10,5 C 12,6 C 4,0 km/h (1 Bft)
06/09/2012 07:50 12,6 C 87 % 1023,1 hPa 0,0 mm 5,4 km/h (2 Bft) NE 45 0 min 0 W/m 10,5 C 12,6 C 7,6 km/h (2 Bft)
06/09/2012 08:00 12,6 C 87 % 1023,2 hPa 0,0 mm 2,2 km/h (1 Bft) NE 45 0 min 0 W/m 10,5 C 12,6 C 4,0 km/h (1 Bft)
06/09/2012 08:10 12,6 C 87 % 1023,0 hPa 0,0 mm 4,0 km/h (1 Bft) N 360 0 min 0 W/m 10,5 C 12,6 C 7,9 km/h (2 Bft)
06/09/2012 08:20 12,6 C 87 % 1023,1 hPa 0,0 mm 1,1 km/h (1 Bft) N-NE 22 0 min 0 W/m 10,5 C 12,6 C 1,1 km/h (1 Bft)
06/09/2012 08:30 13,1 C 88 % 1023,3 hPa 0,0 mm 4,3 km/h (1 Bft) NE 45 0 min 0 W/m 11,2 C 13,1 C 7,9 km/h (2 Bft)
06/09/2012 08:40 13,5 C 87 % 1023,3 hPa 0,0 mm 0,7 km/h (0 Bft) E-NE 67 0 min 0 W/m 11,4 C 13,5 C 4,0 km/h (1 Bft)
06/09/2012 08:50 14,1 C 85 % 1023,4 hPa 0,0 mm 4,7 km/h (1 Bft) NE 45 0 min 0 W/m 11,6 C 14,1 C 9,4 km/h (2 Bft)
06/09/2012 09:00 14,6 C 84 % 1023,5 hPa 0,0 mm 1,1 km/h (1 Bft) N 360 0 min 0 W/m 11,9 C 14,6 C 4,0 km/h (1 Bft)
06/09/2012 09:10 15,3 C 81 % 1023,5 hPa 0,0 mm 4,3 km/h (1 Bft) N-NE 22 0 min 0 W/m 12,1 C 15,3 C 4,3 km/h (1 Bft)
06/09/2012 09:20 15,8 C 79 % 1023,5 hPa 0,0 mm 5,4 km/h (2 Bft) NE 45 0 min 0 W/m 12,2 C 15,8 C 10,4 km/h (2 Bft)
06/09/2012 09:30 16,4 C 77 % 1023,4 hPa 0,0 mm 5,0 km/h (1 Bft) N 360 0 min 0 W/m 12,4 C 16,4 C 6,8 km/h (2 Bft)
06/09/2012 09:40 16,9 C 75 % 1023,6 hPa 0,0 mm 5,4 km/h (2 Bft) NE 45 0 min 0 W/m 12,4 C 16,9 C 9,4 km/h (2 Bft)
06/09/2012 09:50 17,6 C 73 % 1023,7 hPa 0,0 mm 6,8 km/h (2 Bft) N-NE 22 0 min 0 W/m 12,7 C 17,6 C 11,9 km/h (2 Bft)
06/09/2012 10:00 17,9 C 71 % 1023,7 hPa 0,0 mm 5,8 km/h (2 Bft) E-NE 67 0 min 0 W/m 12,6 C 17,9 C 10,1 km/h (2 Bft)
06/09/2012 10:10 18,4 C 69 % 1023,5 hPa 0,0 mm 5,0 km/h (1 Bft) NE 45 0 min 0 W/m 12,6 C 18,4 C 8,6 km/h (2 Bft)
06/09/2012 10:20 18,8 C 68 % 1023,6 hPa 0,0 mm 8,3 km/h (2 Bft) N-NE 22 0 min 0 W/m 12,8 C 18,8 C 13,3 km/h (3 Bft)
06/09/2012 10:30 19,2 C 67 % 1023,7 hPa 0,0 mm 0,7 km/h (0 Bft) E-NE 67 0 min 0 W/m 12,9 C 19,2 C 2,9 km/h (1 Bft)
06/09/2012 10:40 19,9 C 66 % 1023,8 hPa 0,0 mm 6,1 km/h (2 Bft) NE 45 0 min 0 W/m 13,4 C 19,9 C 8,6 km/h (2 Bft)
06/09/2012 10:50 20,6 C 64 % 1023,7 hPa 0,0 mm 5,0 km/h (1 Bft) N-NE 22 0 min 0 W/m 13,5 C 20,6 C 10,4 km/h (2 Bft)
06/09/2012 11:00 21,2 C 62 % 1023,7 hPa 0,0 mm 6,1 km/h (2 Bft) NE 45 0 min 0 W/m 13,6 C 21,2 C 9,4 km/h (2 Bft)
06/09/2012 11:10 21,6 C 60 % 1023,8 hPa 0,0 mm 11,9 km/h (2 Bft) NE 45 0 min 0 W/m 13,5 C 21,6 C 19,4 km/h (3 Bft)
06/09/2012 11:20 21,9 C 60 % 1023,8 hPa 0,0 mm 6,1 km/h (2 Bft) NE 45 0 min 0 W/m 13,8 C 21,9 C 8,6 km/h (2 Bft)
06/09/2012 11:30 22,5 C 59 % 1023,8 hPa 0,0 mm 5,4 km/h (2 Bft) NE 45 0 min 0 W/m 14,1 C 22,5 C 10,4 km/h (2 Bft)
06/09/2012 11:40 23,1 C 57 % 1023,9 hPa 0,0 mm 2,5 km/h (1 Bft) NE 45 0 min 0 W/m 14,1 C 23,1 C 3,6 km/h (1 Bft)
06/09/2012 11:50 23,3 C 56 % 1023,9 hPa 0,0 mm 6,8 km/h (2 Bft) N-NO 337 0 min 0 W/m 14,0 C 23,3 C 10,1 km/h (2 Bft)
06/09/2012 12:00 23,6 C 55 % 1023,9 hPa 0,0 mm 8,6 km/h (2 Bft) NE 45 0 min 0 W/m 14,0 C 23,6 C 8,6 km/h (2 Bft)
06/09/2012 12:10 23,8 C 54 % 1023,8 hPa 0,0 mm 5,0 km/h (1 Bft) N-NE 22 0 min 0 W/m 13,9 C 23,8 C 5,0 km/h (1 Bft)
06/09/2012 12:20 24,2 C 54 % 1023,8 hPa 0,0 mm 9,4 km/h (2 Bft) E-NE 67 0 min 0 W/m 14,3 C 24,2 C 14,0 km/h (3 Bft)
06/09/2012 12:30 24,3 C 53 % 1023,9 hPa 0,0 mm 6,8 km/h (2 Bft) NE 45 0 min 0 W/m 14,1 C 24,3 C 10,4 km/h (2 Bft)
06/09/2012 12:40 24,4 C 52 % 1024,0 hPa 0,0 mm 8,6 km/h (2 Bft) NE 45 0 min 0 W/m 13,9 C 24,4 C 11,2 km/h (2 Bft)
06/09/2012 12:50 24,6 C 52 % 1024,0 hPa 0,0 mm 4,3 km/h (1 Bft) N 360 0 min 0 W/m 14,1 C 24,6 C 11,5 km/h (2 Bft)
06/09/2012 13:00 24,8 C 51 % 1023,9 hPa 0,0 mm 4,3 km/h (1 Bft) N-NO 337 0 min 0 W/m 14,0 C 24,8 C 6,5 km/h (2 Bft)
06/09/2012 13:10 24,7 C 50 % 1023,8 hPa 0,0 mm 6,1 km/h (2 Bft) E-NE 67 0 min 0 W/m 13,6 C 24,7 C 10,8 km/h (2 Bft)
06/09/2012 13:20 24,9 C 50 % 1023,7 hPa 0,0 mm 12,2 km/h (2 Bft) N-NO 337 0 min 0 W/m 13,7 C 24,9 C 15,8 km/h (3 Bft)
06/09/2012 13:30 24,9 C 50 % 1023,6 hPa 0,0 mm 6,8 km/h (2 Bft) NE 45 0 min 0 W/m 13,7 C 24,9 C 9,4 km/h (2 Bft)
06/09/2012 13:40 25,1 C 51 % 1023,6 hPa 0,0 mm 3,2 km/h (1 Bft) NE 45 0 min 0 W/m 14,2 C 25,1 C 6,1 km/h (2 Bft)
06/09/2012 13:50 25,4 C 50 % 1023,6 hPa 0,0 mm 6,5 km/h (2 Bft) N-NE 22 0 min 0 W/m 14,2 C 25,4 C 7,2 km/h (2 Bft)
06/09/2012 14:00 25,6 C 48 % 1023,5 hPa 0,0 mm 9,0 km/h (2 Bft) N-NE 22 0 min 0 W/m 13,8 C 25,6 C 18,4 km/h (3 Bft)
06/09/2012 14:10 25,8 C 48 % 1023,4 hPa 0,0 mm 6,5 km/h (2 Bft) N-NE 22 0 min 0 W/m 13,9 C 25,8 C 13,0 km/h (3 Bft)
06/09/2012 14:20 25,9 C 48 % 1023,1 hPa 0,0 mm 6,1 km/h (2 Bft) E-NE 67 0 min 0 W/m 14,0 C 25,9 C 9,7 km/h (2 Bft)
06/09/2012 14:30 26,1 C 47 % 1023,2 hPa 0,0 mm 5,8 km/h (2 Bft) NE 45 0 min 0 W/m 13,9 C 26,1 C 8,3 km/h (2 Bft)
06/09/2012 14:40 26,3 C 47 % 1023,0 hPa 0,0 mm 8,6 km/h (2 Bft) NE 45 0 min 0 W/m 14,1 C 26,3 C 10,4 km/h (2 Bft)
06/09/2012 14:50 26,2 C 47 % 1023,0 hPa 0,0 mm 7,6 km/h (2 Bft) N-NE 22 0 min 0 W/m 14,0 C 26,2 C 14,0 km/h (3 Bft)
06/09/2012 15:00 26,3 C 47 % 1022,9 hPa 0,0 mm 6,5 km/h (2 Bft) N 360 0 min 0 W/m 14,1 C 26,3 C 9,7 km/h (2 Bft)
06/09/2012 15:10 26,5 C 46 % 1022,9 hPa 0,0 mm 6,5 km/h (2 Bft) E-NE 67 0 min 0 W/m 13,9 C 26,5 C 8,3 km/h (2 Bft)
06/09/2012 15:20 26,5 C 46 % 1022,8 hPa 0,0 mm 6,8 km/h (2 Bft) N-NE 22 0 min 0 W/m 13,9 C 26,5 C 6,8 km/h (2 Bft)
06/09/2012 15:30 26,5 C 46 % 1022,6 hPa 0,0 mm 5,0 km/h (1 Bft) N-NE 22 0 min 0 W/m 13,9 C 26,5 C 7,6 km/h (2 Bft)
06/09/2012 15:40 26,7 C 45 % 1022,7 hPa 0,0 mm 9,0 km/h (2 Bft) NE 45 0 min 0 W/m 13,8 C 26,7 C 14,8 km/h (3 Bft)
06/09/2012 15:50 26,8 C 44 % 1022,7 hPa 0,0 mm 7,2 km/h (2 Bft) E 90 0 min 0 W/m 13,5 C 26,8 C 9,0 km/h (2 Bft)
06/09/2012 16:00 26,9 C 43 % 1022,6 hPa 0,0 mm 8,6 km/h (2 Bft) N-NE 22 0 min 0 W/m 13,2 C 26,9 C 14,4 km/h (3 Bft)
06/09/2012 16:10 26,9 C 43 % 1022,5 hPa 0,0 mm 13,0 km/h (3 Bft) NE 45 0 min 0 W/m 13,2 C 26,9 C 16,6 km/h (3 Bft)
06/09/2012 16:20 27,0 C 44 % 1022,5 hPa 0,0 mm 3,6 km/h (1 Bft) N-NE 22 0 min 0 W/m 13,7 C 27,0 C 8,3 km/h (2 Bft)
06/09/2012 16:30 27,1 C 43 % 1022,4 hPa 0,0 mm 5,8 km/h (2 Bft) NE 45 0 min 0 W/m 13,4 C 27,1 C 12,6 km/h (3 Bft)
06/09/2012 16:40 27,1 C 42 % 1022,4 hPa 0,0 mm 8,3 km/h (2 Bft) E-NE 67 0 min 0 W/m 13,1 C 27,1 C 8,3 km/h (2 Bft)
06/09/2012 16:50 27,1 C 42 % 1022,3 hPa 0,0 mm 8,3 km/h (2 Bft) N-NE 22 0 min 0 W/m 13,1 C 27,1 C 11,9 km/h (2 Bft)
06/09/2012 17:00 27,0 C 42 % 1022,3 hPa 0,0 mm 2,9 km/h (1 Bft) N 360 0 min 0 W/m 13,0 C 27,0 C 4,3 km/h (1 Bft)
06/09/2012 17:10 27,1 C 42 % 1022,2 hPa 0,0 mm 6,8 km/h (2 Bft) E 90 0 min 0 W/m 13,1 C 27,1 C 7,9 km/h (2 Bft)
06/09/2012 17:20 27,1 C 41 % 1022,2 hPa 0,0 mm 1,4 km/h (1 Bft) E-NE 67 0 min 0 W/m 12,7 C 27,1 C 6,1 km/h (2 Bft)
06/09/2012 17:30 27,2 C 41 % 1022,2 hPa 0,0 mm 4,7 km/h (1 Bft) NE 45 0 min 0 W/m 12,8 C 27,2 C 8,3 km/h (2 Bft)
06/09/2012 17:40 27,2 C 40 % 1022,1 hPa 0,0 mm 9,4 km/h (2 Bft) E-NE 67 0 min 0 W/m 12,4 C 27,2 C 9,4 km/h (2 Bft)
06/09/2012 17:50 27,2 C 40 % 1022,2 hPa 0,0 mm 10,8 km/h (2 Bft) NE 45 0 min 0 W/m 12,4 C 27,2 C 14,0 km/h (3 Bft)
06/09/2012 18:00 27,1 C 41 % 1022,1 hPa 0,0 mm 6,8 km/h (2 Bft) NE 45 0 min 0 W/m 12,7 C 27,1 C 11,9 km/h (2 Bft)
06/09/2012 18:10 27,1 C 40 % 1022,0 hPa 0,0 mm 4,0 km/h (1 Bft) N 360 0 min 0 W/m 12,3 C 27,1 C 7,6 km/h (2 Bft)
06/09/2012 18:20 27,1 C 39 % 1022,0 hPa 0,0 mm 6,1 km/h (2 Bft) N 360 0 min 0 W/m 11,9 C 27,1 C 6,8 km/h (2 Bft)
06/09/2012 18:30 26,9 C 39 % 1022,2 hPa 0,0 mm 5,0 km/h (1 Bft) NE 45 0 min 0 W/m 11,8 C 26,9 C 12,6 km/h (3 Bft)
06/09/2012 18:40 26,8 C 39 % 1022,1 hPa 0,0 mm 6,1 km/h (2 Bft) N 360 0 min 0 W/m 11,7 C 26,8 C 13,0 km/h (3 Bft)
06/09/2012 18:50 26,6 C 39 % 1022,2 hPa 0,0 mm 3,6 km/h (1 Bft) N-NE 22 0 min 0 W/m 11,5 C 26,6 C 6,8 km/h (2 Bft)
06/09/2012 19:00 26,5 C 39 % 1022,2 hPa 0,0 mm 3,2 km/h (1 Bft) N-NE 22 0 min 0 W/m 11,4 C 26,5 C 4,3 km/h (1 Bft)
06/09/2012 19:10 26,4 C 38 % 1022,1 hPa 0,0 mm 5,8 km/h (2 Bft) E-NE 67 0 min 0 W/m 10,9 C 26,4 C 10,8 km/h (2 Bft)
06/09/2012 19:20 26,1 C 38 % 1022,2 hPa 0,0 mm 6,1 km/h (2 Bft) N 360 0 min 0 W/m 10,7 C 26,1 C 6,1 km/h (2 Bft)
06/09/2012 19:30 25,8 C 38 % 1022,2 hPa 0,0 mm 5,8 km/h (2 Bft) NE 45 0 min 0 W/m 10,4 C 25,8 C 5,8 km/h (2 Bft)
06/09/2012 19:40 25,5 C 39 % 1022,3 hPa 0,0 mm 6,1 km/h (2 Bft) N-NE 22 0 min 0 W/m 10,5 C 25,5 C 10,1 km/h (2 Bft)
06/09/2012 19:50 24,9 C 39 % 1022,4 hPa 0,0 mm 6,5 km/h (2 Bft) N 360 0 min 0 W/m 10,0 C 24,9 C 10,4 km/h (2 Bft)
06/09/2012 20:00 24,2 C 40 % 1022,4 hPa 0,0 mm 4,0 km/h (1 Bft) NE 45 0 min 0 W/m 9,7 C 24,2 C 10,8 km/h (2 Bft)
06/09/2012 20:10 23,5 C 41 % 1022,5 hPa 0,0 mm 5,8 km/h (2 Bft) N-NE 22 0 min 0 W/m 9,5 C 23,5 C 5,8 km/h (2 Bft)
06/09/2012 20:20 22,9 C 42 % 1022,6 hPa 0,0 mm 2,5 km/h (1 Bft) NE 45 0 min 0 W/m 9,3 C 22,9 C 6,5 km/h (2 Bft)
06/09/2012 20:30 22,3 C 43 % 1022,5 hPa 0,0 mm 3,6 km/h (1 Bft) N-NE 22 0 min 0 W/m 9,1 C 22,3 C 5,8 km/h (2 Bft)
06/09/2012 20:40 21,8 C 44 % 1022,5 hPa 0,0 mm 3,2 km/h (1 Bft) N-NE 22 0 min 0 W/m 9,0 C 21,8 C 6,1 km/h (2 Bft)
06/09/2012 20:50 21,4 C 44 % 1022,5 hPa 0,0 mm 5,4 km/h (2 Bft) NE 45 0 min 0 W/m 8,6 C 21,4 C 9,7 km/h (2 Bft)
06/09/2012 21:00 21,0 C 45 % 1022,7 hPa 0,0 mm 5,0 km/h (1 Bft) N-NE 22 0 min 0 W/m 8,6 C 21,0 C 6,5 km/h (2 Bft)
06/09/2012 21:10 20,6 C 45 % 1022,8 hPa 0,0 mm 2,2 km/h (1 Bft) N-NE 22 0 min 0 W/m 8,2 C 20,6 C 5,0 km/h (1 Bft)
06/09/2012 21:20 20,3 C 46 % 1022,8 hPa 0,0 mm 2,2 km/h (1 Bft) N-NE 22 0 min 0 W/m 8,3 C 20,3 C 6,5 km/h (2 Bft)
06/09/2012 21:30 19,9 C 47 % 1022,9 hPa 0,0 mm 6,1 km/h (2 Bft) N-NE 22 0 min 0 W/m 8,3 C 19,9 C 10,1 km/h (2 Bft)
06/09/2012 21:40 19,6 C 47 % 1023,0 hPa 0,0 mm 1,8 km/h (1 Bft) NE 45 0 min 0 W/m 8,0 C 19,6 C 4,3 km/h (1 Bft)
06/09/2012 21:50 19,3 C 48 % 1023,0 hPa 0,0 mm 1,8 km/h (1 Bft) NE 45 0 min 0 W/m 8,0 C 19,3 C 4,0 km/h (1 Bft)
_ Min-Heure 08:20 19:30 00:40 - 07:10 - - - - 21:40 08:20 07:10
Minimum _ 12,6 C 38 % 1021,9 hPa - 0,0 km/h (0 Bft) - - - - 8,0 C 12,6 C 0,0 km/h (0 Bft)
_ Max-Heure 17:50 08:30 12:50 21:50 16:10 - - 21:50 21:50 12:20 17:50 11:10
Maximum _ 27,2 C 88 % 1024,0 hPa 0,0 mm 13,0 km/h
NE (3 Bft)
- - 0 min 0 W/m 14,3 C 27,2 C 19,4 km/h
NE (3 Bft)
Moyenne _ 20,2 C 63 % 1022,8 hPa #0,0 mm 4,4 km/h (1 Bft) N-NE - #0 min. 0 W/m 12,1 C 20,2 C 7,3 km/h (2 Bft)
Saint Bonnet de Bellac- Haute Vienne - France